Regional Weather Roundup
Issued by NWS

Home | Current Version | Previous Version | Text Only | Print | Product List | Glossary Off
Versions: 1 2 3 4 5 6 7 8 9 10 11 12 13 14 15 16 17 18 19 20 21 22 23 24 25 26 27

000
ASUS45 KBOU 230107
RWRCO

WEATHER ROUNDUP FOR COLORADO
NATIONAL WEATHER SERVICE DENVER/BOULDER CO
700 PM MDT TUE AUG 22 2017

NOTE: "FAIR" INDICATES FEW OR NO CLOUDS BELOW 12000 FEET WITH NO
SIGNIFICANT WEATHER AND/OR OBSTRUCTIONS TO VISIBILITY.

COZ001>005-013-030-031-230200-
...NORTHWEST COLORADO...

CITY           SKY/WX    TMP DP  RH WIND       PRES   REMARKS
CRAIG          FAIR      78  36  21 S10       30.26S
HAYDEN         FAIR      75  39  27 N6        30.30S
MEEKER         FAIR      70  48  45 CALM      30.31S
RABBIT EARS PA FAIR      55  36  47 NW5       30.59F
STEAMBOAT SPGS FAIR      74  40  30 CALM      30.31S
WALDEN         FAIR      70  34  26 W6        30.40S
$$

COZ006>008-011-230200-
...WEST CENTRAL VALLEYS...

CITY           SKY/WX    TMP DP  RH WIND       PRES   REMARKS
GRAND JUNCTION LGT RAIN  76  49  38 NE17G40   30.20S
MONTROSE       FAIR      75  48  38 W8        30.28S
EAGLE          FAIR      74  43  32 SW17      30.32S
RIFLE          FAIR      75  44  33 W17       30.25F
DELTA          FAIR      81  45  27 E10       30.23S
NUCLA          FAIR      72  43  35 NE14G22   30.31S
$$

COZ017>023-064>068-230200-
...SOUTHWEST COLORADO...

CITY           SKY/WX    TMP DP  RH WIND       PRES   REMARKS
DURANGO        FAIR      79  41  25 VRB6      30.28S
CORTEZ         FAIR      79  48  33 W8        30.23F
PAGOSA SPRINGS MOCLDY    67  42  39 NW10G16   30.40R
TELLURIDE      NOT AVBL
WOLF CREEK PAS CLOUDY    41  39  93 NW8       30.76S THUNDER
$$

COZ009-010-012-014-032>034-037-058>063-230200-
...CENTRAL COLORADO...

CITY           SKY/WX    TMP DP  RH WIND       PRES   REMARKS
ASPEN          CLOUDY    63  44  50 SE21G30   30.44S
BUENA VISTA    MOCLDY    64  40  41 W10G25    30.44R
COPPER MTN     MOCLDY    54  36  50 S13       30.73S THUNDER
BERTHOUD PASS  CLOUDY    45  39  81 S5        30.75S
COTTONWOOD PAS CLOUDY    55  41  58 W16G26    30.58R
GUNNISON       FAIR      62  47  57 N14       30.45S
KREMMLING      FAIR      79  32  18 NW3       30.36S
LEADVILLE      CLOUDY    54  39  57 N10       30.58R
MONARCH PASS   TSTM      45  37  76 NW14G21   30.83S
SALIDA         CLOUDY    67  50  54 SW12      30.49R
SUNLIGHT       CLOUDY    52  36  54 W6        30.66F
WILKERSON PASS CLOUDY    50  45  81 S3        30.72R THUNDER
$$

COZ069>075-230200-
...SAN LUIS VALLEY/SANGRE DE CRISTO MOUNTAINS...

CITY           SKY/WX    TMP DP  RH WIND       PRES   REMARKS
ALAMOSA        CLOUDY    67  45  45 SE15      30.39S
DEL NORTE      TSTM      60  47  63 SW21G28   30.48R
LA VETA PASS   NOT AVBL
SAGUACHE         N/A    N/A N/A N/A MISG        N/A
$$

COZ035-036-038>040-230200-
...NORTHERN COLORADO FRONT RANGE...

CITY           SKY/WX    TMP DP  RH WIND       PRES   REMARKS
DENVER INTL AP MOCLDY    77  51  40 S17       30.21S
DMNS CITY PARK   N/A     77  43  29 S8G14     30.21S
AURORA         MOCLDY    74  54  49 SW13      30.24S
FRONT RANGE AP FAIR      77  52  41 S9G23     30.24R
ERIE MUNI ARPT FAIR      76  58  53 N3        30.24S
BOULDER MUN AP FAIR      77  55  47 N3        30.20S
CENTENNIAL     MOCLDY    73  53  49 S17G23    30.24F
BROOMFIELD     MOCLDY    77  55  47 CALM      30.24S
FORT COLLINS   FAIR      76  60  57 CALM      30.19S
LONGMONT       FAIR      79  57  46 CALM      30.20S
$$

COZ041-046-047-076>085-087-088-230200-
...PIKES PEAK/PALMER DIVIDE AND SOUTHERN FOOTHILLS...

CITY           SKY/WX    TMP DP  RH WIND       PRES   REMARKS
COLO. SPRINGS  FAIR      72  56  57 S17       30.35S
A. F. ACADEMY  FAIR      68  52  55 S9        30.36S
SCHRIEVER AFB  FAIR      69  54  57 S14       30.36S
CHEYENNE MTN   FAIR      65  53  63 S14G22    30.34S
ELLICOTT       FAIR     N/A N/A N/A S10       30.34S
FALCON         FAIR      67  51  57 S14       30.40S
FORT CARSON    FAIR      72  55  54 S13       30.32S
LIMON          FAIR      70  53  54 S15G22    30.28F
MONUMENT HILL  FAIR      63  54  72 S20G25    30.38S
CANON CITY     MOCLDY    75  59  57 E14       30.28S
WALSENBURG     FAIR      68  50  52 S10G18    30.33F
TRINIDAD       FAIR      65  53  65 SW15      30.31F
$$

COZ042>045-048>051-090-091-230200-
...NORTHEAST COLORADO...

CITY           SKY/WX    TMP DP  RH WIND       PRES   REMARKS
GREELEY ARPT   FAIR      77  59  53 N6        30.15F
AKRON          FAIR      76  51  41 S18       30.21F
BURLINGTON     FAIR      74  56  53 S9        30.23F
WRAY           NOT AVBL
YUMA           FAIR      70  46  43 S9        30.20F
STERLING       FAIR      77  54  44 S9G18     30.16S
HOLYOKE        FAIR      73  55  53 S8        30.20S
FORT MORGAN    FAIR      78  52  39 SE13G20   30.18S
$$

COZ086-089-092>099-230200-
...SOUTHEAST COLORADO...

CITY           SKY/WX    TMP DP  RH WIND       PRES   REMARKS
PUEBLO         FAIR      77  56  48 SE8       30.25S
LA JUNTA       FAIR      78  57  48 S7        30.23F
LAMAR          FAIR      76  56  49 S7        30.19F
SPRINGFIELD      N/A     71  59  65 SE7       30.25S
$$




USA.gov is the U.S. government's official web portal to all federal, state and local government web resources and services.